Weather History for KWAL - January, 2012

Change the Weather History Date:

Tuesday, January 24, 2012

  Actual Average Record
Temperature  
Mean Temperature 49 °F 36 °F  
Max Temperature 61 °F 45 °F 70 °F (2002)
Min Temperature 37 °F 28 °F 11 °F (2005)
Degree Days  
Heating Degree Days 16    
Month to date heating degree days 555  
Since 1 July heating degree days 1708  
Cooling Degree Days 0    
Month to date cooling degree days 0  
Year to date cooling degree days 0  
Moisture  
Dew Point 48 °F    
Average Humidity 81    
Maximum Humidity 100    
Minimum Humidity 62    
Precipitation  
Precipitation T in 0.10 in 1.62 in (2015)
Month to date precipitation 1.68 2.36  
Year to date precipitation 1.68 2.36  
Sea Level Pressure  
Sea Level Pressure 30.06 in    
Wind  
Wind Speed 6 mph (West)    
Max Wind Speed 16 mph    
Max Gust Speed 23 mph    
Visibility 9 miles    
Events      
T = Trace of Precipitation, MM = Missing Value Source: NWS Daily Summary

Daily Weather History Graph

Daily Weather History Graph

Search for Another Location

Airport or City:

Trip Planner

Search our weather history database for the weather conditions in past years. The results will help you decide how hot, cold, wet, or windy it might be!

Date:

Astronomy

Jan. 24, 2012 Rise Set
Actual Time 7:12 AM EST 5:15 PM EST
Civil Twilight 6:44 AM EST 5:43 PM EST
Nautical Twilight 6:12 AM EST 6:15 PM EST
Astronomical Twilight 5:41 AM EST 6:47 PM EST
Moon 7:42 AM EST (1/24) 7:02 PM EST (1/24)
Length of Visible Light 10h 59m
Length of Day
10h 03m
New Moon, 2% of the Moon is Illuminated
Jan 24
New Moon
Jan 30
First Quarter
Feb 7
Full
Feb 14
Last Quarter
Feb 21
New

Hourly Weather History & Observations

Time (EST) Temp. Windchill Dew Point Humidity Pressure Visibility Wind Dir Wind Speed Gust Speed Precip Events Conditions
12:25 AM 51.8 °F - 51.8 °F 100% 29.99 in 5.0 mi SSW 5.8 mph - N/A   Overcast
12:45 AM 51.8 °F - 50.0 °F 94% 29.99 in 4.0 mi SSW 4.6 mph - N/A   Overcast
12:54 AM 52.0 °F - 50.0 °F 93% 29.99 in 3.0 mi North - - N/A   Overcast
1:54 AM 55.9 °F - 55.0 °F 97% 29.99 in 7.0 mi West 10.4 mph 17.3 mph 0.00 in   Overcast
2:31 AM 57.2 °F - 55.4 °F 94% 29.99 in 10.0 mi WSW 10.4 mph - N/A   Mostly Cloudy
2:47 AM 57.2 °F - 55.4 °F 94% 29.99 in 10.0 mi West 9.2 mph - N/A   Scattered Clouds
2:54 AM 57.0 °F - 54.0 °F 89% 29.98 in 10.0 mi WSW 10.4 mph - N/A   Mostly Cloudy
3:54 AM 57.0 °F - 53.1 °F 87% 29.99 in 10.0 mi West 12.7 mph - N/A   Overcast
4:54 AM 55.4 °F - 51.8 °F 88% 30.00 in 10.0 mi West 10.4 mph 19.6 mph N/A   Overcast
5:35 AM 53.6 °F - 51.8 °F 94% 30.01 in 10.0 mi West 8.1 mph - N/A   Partly Cloudy
5:54 AM 54.0 °F - 51.1 °F 90% 30.00 in 10.0 mi West 8.1 mph - N/A   Clear
6:54 AM 52.0 °F - 50.0 °F 93% 30.02 in 9.0 mi WNW 8.1 mph - N/A   Clear
7:54 AM 51.1 °F - 48.9 °F 92% 30.04 in 8.0 mi WNW 9.2 mph - N/A   Overcast
8:01 AM 51.8 °F - 48.2 °F 88% 30.05 in 8.0 mi WNW 9.2 mph - N/A   Mostly Cloudy
8:54 AM 53.1 °F - 48.9 °F 86% 30.06 in 10.0 mi NW 10.4 mph - N/A   Overcast
9:37 AM 53.6 °F - 48.2 °F 82% 30.09 in 10.0 mi NW 13.8 mph - N/A   Overcast
9:54 AM 52.0 °F - 48.0 °F 86% 30.08 in 10.0 mi NW 11.5 mph - N/A   Overcast
10:54 AM 52.0 °F - 46.9 °F 83% 30.09 in 10.0 mi North 10.4 mph - N/A   Overcast
11:33 AM 53.6 °F - 46.4 °F 77% 30.08 in 10.0 mi NW 6.9 mph - N/A   Scattered Clouds
11:54 AM 55.9 °F - 46.0 °F 69% 30.07 in 10.0 mi Variable 4.6 mph - N/A   Clear
12:54 PM 59.0 °F - 46.0 °F 62% 30.05 in 10.0 mi Calm Calm - N/A   Mostly Cloudy
1:54 PM 57.9 °F - 46.9 °F 67% 30.04 in 10.0 mi South 8.1 mph - N/A   Mostly Cloudy
2:54 PM 59.0 °F - 46.9 °F 64% 30.04 in 10.0 mi WNW 6.9 mph - N/A   Mostly Cloudy
3:54 PM 55.9 °F - 46.0 °F 69% 30.05 in 10.0 mi West 6.9 mph - N/A   Overcast
4:54 PM 53.1 °F - 44.1 °F 71% 30.08 in 10.0 mi WNW 5.8 mph - N/A   Clear
5:54 PM 48.9 °F - 43.0 °F 80% 30.11 in 10.0 mi NW 4.6 mph - N/A   Clear
6:54 PM 46.9 °F - 43.0 °F 86% 30.13 in 10.0 mi Calm Calm - N/A   Clear
7:54 PM 43.0 °F - 42.1 °F 97% 30.15 in 10.0 mi Calm Calm - N/A   Clear
8:54 PM 41.0 °F - 39.9 °F 96% 30.16 in 8.0 mi Calm Calm - N/A   Clear
9:54 PM 41.0 °F - 39.0 °F 93% 30.17 in 9.0 mi Calm Calm - N/A   Clear
10:04 PM - - - N/A% - - North - - N/A   Unknown
10:54 PM 41.0 °F - 39.0 °F 93% 30.18 in 10.0 mi Calm Calm - N/A   Clear
11:54 PM 37.0 °F 34.5 °F 36.0 °F 96% 30.18 in 7.0 mi NW 3.5 mph - N/A   Clear